Time,TemperatureF,DewpointF,PressureIn,WindDirection,WindDirectionDegrees,WindSpeedMPH,WindSpeedGustMPH,Humidity,HourlyPrecipIn,Conditions,Clouds,dailyrainin,SolarRadiationWatts/m^2,SoftwareType,DateUTC
2013-03-27 00:02:00,46.0,11.0,-100.00,East,95,4.0,6.0,24,0.00,,,0.00,0.000000,,2013-03-27 06:02:00,
2013-03-27 00:12:00,46.0,11.0,-100.00,East,95,4.0,6.0,24,0.00,,,0.00,0.000000,,2013-03-27 06:12:00,
2013-03-27 00:22:00,46.0,11.0,-100.00,East,95,4.0,6.0,24,0.00,,,0.00,0.000000,,2013-03-27 06:22:00,
2013-03-27 00:32:00,46.0,11.0,-100.00,East,95,4.0,6.0,24,0.00,,,0.00,0.000000,,2013-03-27 06:32:00,
2013-03-27 00:42:00,46.0,11.0,-100.00,East,95,4.0,6.0,24,0.00,,,0.00,0.000000,,2013-03-27 06:42:00,
2013-03-27 01:12:00,46.0,11.0,-100.00,ESE,104,2.0,7.0,24,0.00,,,0.00,0.000000,,2013-03-27 07:12:00,
2013-03-27 01:22:00,46.0,11.0,-100.00,ESE,104,2.0,7.0,24,0.00,,,0.00,0.000000,,2013-03-27 07:22:00,
2013-03-27 01:32:00,46.0,11.0,-100.00,ESE,104,2.0,7.0,24,0.00,,,0.00,0.000000,,2013-03-27 07:32:00,
2013-03-27 01:42:00,46.0,11.0,-100.00,ESE,104,2.0,7.0,24,0.00,,,0.00,0.000000,,2013-03-27 07:42:00,
2013-03-27 02:02:00,45.0,12.0,-100.00,East,91,3.0,5.0,26,0.00,,,0.00,0.000000,,2013-03-27 08:02:00,
2013-03-27 02:12:00,45.0,12.0,-100.00,East,91,3.0,5.0,26,0.00,,,0.00,0.000000,,2013-03-27 08:12:00,
2013-03-27 02:22:00,45.0,12.0,-100.00,East,91,3.0,5.0,26,0.00,,,0.00,0.000000,,2013-03-27 08:22:00,
2013-03-27 02:32:00,45.0,12.0,-100.00,East,91,3.0,5.0,26,0.00,,,0.00,0.000000,,2013-03-27 08:32:00,
2013-03-27 02:42:00,45.0,12.0,-100.00,East,91,3.0,5.0,26,0.00,,,0.00,0.000000,,2013-03-27 08:42:00,
2013-03-27 03:12:00,46.0,12.0,-100.00,SSW,200,4.0,7.0,25,0.00,,,0.00,0.000000,,2013-03-27 09:12:00,
2013-03-27 03:22:00,46.0,12.0,-100.00,SSW,200,4.0,7.0,25,0.00,,,0.00,0.000000,,2013-03-27 09:22:00,
2013-03-27 03:32:00,46.0,12.0,-100.00,SSW,200,4.0,7.0,25,0.00,,,0.00,0.000000,,2013-03-27 09:32:00,
2013-03-27 04:02:00,45.0,13.0,-100.00,South,183,3.0,8.0,27,-99.99,,,0.00,0.000000,,2013-03-27 10:02:00,
2013-03-27 04:12:00,45.0,13.0,-100.00,South,183,3.0,8.0,27,-99.99,,,0.00,0.000000,,2013-03-27 10:12:00,
2013-03-27 04:22:00,45.0,13.0,-100.00,South,183,3.0,8.0,27,-99.99,,,0.00,0.000000,,2013-03-27 10:22:00,
2013-03-27 04:32:00,45.0,13.0,-100.00,South,183,3.0,8.0,27,-99.99,,,0.00,0.000000,,2013-03-27 10:32:00,
2013-03-27 04:41:00,45.0,13.0,-100.00,South,183,3.0,8.0,27,-99.99,,,0.00,0.000000,,2013-03-27 10:41:00,
2013-03-27 05:02:00,43.0,13.0,-100.00,SSE,147,3.0,5.0,29,0.00,,,0.00,0.000000,,2013-03-27 11:02:00,
2013-03-27 05:12:00,43.0,13.0,-100.00,SSE,147,3.0,5.0,29,0.00,,,0.00,0.000000,,2013-03-27 11:12:00,
2013-03-27 05:22:00,43.0,13.0,-100.00,SSE,147,3.0,5.0,29,0.00,,,0.00,0.000000,,2013-03-27 11:22:00,
2013-03-27 05:32:00,43.0,13.0,-100.00,SSE,147,3.0,5.0,29,0.00,,,0.00,0.000000,,2013-03-27 11:32:00,
2013-03-27 05:42:00,43.0,13.0,-100.00,SSE,147,3.0,5.0,29,0.00,,,0.00,0.000000,,2013-03-27 11:42:00,
2013-03-27 06:02:00,40.0,14.0,-100.00,SE,125,3.0,6.0,34,0.00,,,0.00,0.000000,,2013-03-27 12:02:00,
2013-03-27 06:12:00,40.0,14.0,-100.00,SE,125,3.0,6.0,34,0.00,,,0.00,0.000000,,2013-03-27 12:12:00,
2013-03-27 06:22:00,40.0,14.0,-100.00,SE,125,3.0,6.0,34,0.00,,,0.00,0.000000,,2013-03-27 12:22:00,
2013-03-27 06:32:00,40.0,14.0,-100.00,SE,125,3.0,6.0,34,0.00,,,0.00,0.000000,,2013-03-27 12:32:00,
2013-03-27 06:42:00,40.0,14.0,-100.00,SE,125,3.0,6.0,34,0.00,,,0.00,0.000000,,2013-03-27 12:42:00,
2013-03-27 07:02:00,38.0,12.0,-100.00,East,96,3.0,5.0,34,0.00,,,0.00,0.000000,,2013-03-27 13:02:00,
2013-03-27 07:12:00,38.0,12.0,-100.00,East,96,3.0,5.0,34,0.00,,,0.00,0.000000,,2013-03-27 13:12:00,
2013-03-27 07:32:00,38.0,12.0,-100.00,East,96,3.0,5.0,34,0.00,,,0.00,0.000000,,2013-03-27 13:32:00,
2013-03-27 07:41:00,38.0,12.0,-100.00,East,96,3.0,5.0,34,0.00,,,0.00,0.000000,,2013-03-27 13:41:00,
2013-03-27 08:12:00,39.0,14.0,-100.00,ENE,72,4.0,6.0,35,0.00,,,0.00,0.000000,,2013-03-27 14:12:00,
2013-03-27 08:22:00,39.0,14.0,-100.00,ENE,72,4.0,6.0,35,0.00,,,0.00,0.000000,,2013-03-27 14:22:00,
2013-03-27 08:32:00,39.0,14.0,-100.00,ENE,72,4.0,6.0,35,0.00,,,0.00,0.000000,,2013-03-27 14:32:00,
2013-03-27 08:42:00,39.0,14.0,-100.00,ENE,72,4.0,6.0,35,0.00,,,0.00,0.000000,,2013-03-27 14:42:00,
2013-03-27 09:02:00,49.0,16.0,-100.00,ESE,106,3.0,6.0,27,0.00,,,0.00,27.000000,,2013-03-27 15:02:00,
2013-03-27 09:42:00,49.0,16.0,-100.00,ESE,106,3.0,6.0,27,0.00,,,0.00,27.000000,,2013-03-27 15:42:00,
2013-03-27 12:12:00,60.0,15.0,-100.00,SW,215,5.0,12.0,17,-99.99,,,0.00,790.000000,,2013-03-27 18:12:00,
2013-03-27 12:22:00,60.0,15.0,-100.00,SW,215,5.0,12.0,17,-99.99,,,0.00,790.000000,,2013-03-27 18:22:00,
2013-03-27 12:32:00,60.0,15.0,-100.00,SW,215,5.0,12.0,17,-99.99,,,0.00,790.000000,,2013-03-27 18:32:00,
2013-03-27 12:42:00,60.0,15.0,-100.00,SW,215,5.0,12.0,17,-99.99,,,0.00,790.000000,,2013-03-27 18:42:00,
2013-03-27 13:42:00,63.0,13.0,-100.00,SW,232,6.0,16.0,14,0.00,,,0.00,980.000000,,2013-03-27 19:42:00,
2013-03-27 14:02:00,64.0,10.0,-100.00,WSW,253,7.0,14.0,12,0.00,,,0.00,1169.000000,,2013-03-27 20:02:00,
2013-03-27 14:12:00,64.0,10.0,-100.00,WSW,253,7.0,14.0,12,0.00,,,0.00,1169.000000,,2013-03-27 20:12:00,
2013-03-27 14:22:00,64.0,10.0,-100.00,WSW,253,7.0,14.0,12,0.00,,,0.00,1169.000000,,2013-03-27 20:22:00,
2013-03-27 14:32:00,64.0,10.0,-100.00,WSW,253,7.0,14.0,12,0.00,,,0.00,1169.000000,,2013-03-27 20:32:00,
2013-03-27 14:42:00,64.0,10.0,-100.00,WSW,253,7.0,14.0,12,0.00,,,0.00,1169.000000,,2013-03-27 20:42:00,
2013-03-27 15:02:00,62.0,7.0,-100.00,WSW,252,6.0,17.0,11,0.00,,,0.00,1172.000000,,2013-03-27 21:02:00,
2013-03-27 15:12:00,62.0,7.0,-100.00,WSW,252,6.0,17.0,11,0.00,,,0.00,1172.000000,,2013-03-27 21:12:00,
2013-03-27 15:22:00,62.0,7.0,-100.00,WSW,252,6.0,17.0,11,0.00,,,0.00,1172.000000,,2013-03-27 21:22:00,
2013-03-27 15:32:00,62.0,7.0,-100.00,WSW,252,6.0,17.0,11,0.00,,,0.00,1172.000000,,2013-03-27 21:32:00,
2013-03-27 15:42:00,62.0,7.0,-100.00,WSW,252,6.0,17.0,11,0.00,,,0.00,1172.000000,,2013-03-27 21:42:00,
2013-03-27 16:03:00,64.0,6.0,-100.00,WSW,258,8.0,19.0,10,0.00,,,0.00,1095.000000,,2013-03-27 22:03:00,
2013-03-27 16:12:00,64.0,6.0,-100.00,WSW,258,8.0,19.0,10,0.00,,,0.00,1095.000000,,2013-03-27 22:12:00,
2013-03-27 16:23:00,64.0,6.0,-100.00,WSW,258,8.0,19.0,10,0.00,,,0.00,1095.000000,,2013-03-27 22:23:00,
2013-03-27 16:32:00,64.0,6.0,-100.00,WSW,258,8.0,19.0,10,0.00,,,0.00,1095.000000,,2013-03-27 22:32:00,
2013-03-27 16:42:00,64.0,6.0,-100.00,WSW,258,8.0,19.0,10,0.00,,,0.00,1095.000000,,2013-03-27 22:42:00,
2013-03-27 17:02:00,64.0,6.0,-100.00,West,264,9.0,18.0,10,0.00,,,0.00,890.000000,,2013-03-27 23:02:00,
2013-03-27 17:12:00,64.0,6.0,-100.00,West,264,9.0,18.0,10,0.00,,,0.00,890.000000,,2013-03-27 23:12:00,
2013-03-27 17:22:00,64.0,6.0,-100.00,West,264,9.0,18.0,10,0.00,,,0.00,890.000000,,2013-03-27 23:22:00,
2013-03-27 17:32:00,64.0,6.0,-100.00,West,264,9.0,18.0,10,0.00,,,0.00,890.000000,,2013-03-27 23:32:00,
2013-03-27 17:42:00,64.0,6.0,-100.00,West,264,9.0,18.0,10,0.00,,,0.00,890.000000,,2013-03-27 23:42:00,
2013-03-27 18:12:00,60.0,9.0,-100.00,WNW,296,7.0,17.0,13,0.00,,,0.00,706.000000,,2013-03-28 00:12:00,
2013-03-27 18:22:00,60.0,9.0,-100.00,WNW,296,7.0,17.0,13,0.00,,,0.00,706.000000,,2013-03-28 00:22:00,
2013-03-27 18:32:00,60.0,9.0,-100.00,WNW,296,7.0,17.0,13,0.00,,,0.00,706.000000,,2013-03-28 00:32:00,
2013-03-27 18:42:00,60.0,9.0,-100.00,WNW,296,7.0,17.0,13,0.00,,,0.00,706.000000,,2013-03-28 00:42:00,